Gustavus, AK

11:17 AM AKDT on September 24, 2017 (GMT -0800)
Gustavus | | Change Station

Elev 33 ft 58.42 °N, 135.71 °W | Updated 21 minutes ago

Light Rain
Light Rain
54 °F
Feels Like 54 °F
N
4
Wind Variable Wind from East

Today
High -- | Low -- °F
--% Chance of Precip.
Yesterday
High -- | Low -- °F
Precip. -- in
Pressure 29.78 in
Visibility 7.0 miles
Clouds Mostly Cloudy 400 ft
Overcast 3900 ft
Dew Point 52 °F
Humidity 93%
Rainfall 0.19 in
Snow Depth Not available.
6:53 AM 6:55 PM
Waxing Crescent, 20% visible
METAR PAGS 241856Z AUTO 08003KT 7SM -RA BKN004 OVC039 12/11 A2978 RMK AO2 RAB1757 SLP083 P0005 T01220111
Pressure 29.78 in
Visibility 7.0 miles
Clouds Mostly Cloudy 400 ft
Overcast 3900 ft
Dew Point 52 °F
Humidity 93%
Rainfall 0.19 in
Snow Depth Not available.
6:53 AM 6:55 PM
Waxing Crescent, 20% visible
METAR PAGS 241856Z AUTO 08003KT 7SM -RA BKN004 OVC039 12/11 A2978 RMK AO2 RAB1757 SLP083 P0005 T01220111

Get Severe Weather Alerts

Thanks for signing up!

Be on the lookout for a verification email in your inbox.

You'll start receiving the daily forecast at 6 AM.

×

10-Day Weather Forecast

Almanac

Astronomy

Sep. 24, 2017 Rise Set
Actual Time
Civil Twilight
Nautical Twilight
Astronomical Twilight
Moon
Length of Visible Light
Length of Day
Tomorrow will be .
, % of the Moon is Illuminated

Today's Extremes

State Highs State Lows

Community

WunderPhotos

Category 6

Welcome to Category 6. This is the collective home for Weather Underground's featured writeups by Dr. Jeff Masters (right), Bob Henson (left), Chris Burt, and other regular contributors.

Nearby

Air Quality

  Air Quality AQ Index Pollutant
Not available.

Snow Depth

Station Depth Elevation

Earthquake Activity

City Distance Mag. Time & Date
Minimum magnitude displayed is 2.5.

Coastal Water Temperatures

Place Temperature

Stations

Nearby Weather Stations

Station Location Temp. Windchill Dew Point Humidity Wind Precip. Elev Updated Type
                   

Watches & Warnings

There are currently no watches in effect.